CAPE
698 900 975 988 1034 1157 1123 1167 1127 1239 1163 1254 1313 1373 1358 1356 1351 1403 1347 1487 1686 1509 1507 1530 1525 1184 1012 858 752 710 565 443 541 574 602 496 458 303 425 203 101 223 188
648 132 547 1149 1550 1392 1236 1294 1406 1506 1578 1464 1591 1644 1680 1659 1648 1563 1615 1845 1886 1653 1302 1319 1433 1128 1252 1680 1438 1008 798 646 679 766 994 592 845 816 342 264 327 174 188
349 293 326 88 340 1072 1524 1960 1875 2119 1997 2002 2013 1983 1961 1977 2050 2032 2020 2008 2035 1946 1765 1650 1540 1296 1442 1401 1736 1463 1422 1334 1012 981 747 486 1075 1203 911 376 383 523 641
734 114 210 1027 1174 1017 1086 792 1591 2163 2253 2342 2364 2296 2260 2194 2281 2321 2346 2218 2167 2110 2055 1952 2030 2002 2024 2026 2003 1641 1376 1406 1365 1165 915 669 935 1292 1157 885 670 634 814
1848 1604 1792 1991 2167 2260 2325 2226 2221 2099 2217 2434 2465 2556 2620 2441 2307 2273 2373 2428 2385 2218 2225 2263 2207 2110 1941 1967 2148 1678 1564 1582 1427 1173 935 835 1097 1226 1160 1197 787 596 570
2147 1183 1306 2331 2512 2981 3094 3149 3105 2982 2912 2806 2472 2534 2702 2661 2293 1806 2049 2498 2492 2418 2431 2420 2220 2100 1823 1602 1598 1395 1751 1802 1513 1225 1054 979 1009 1419 1356 1086 941 694 370
3100 2208 2147 380 2000 2421 3281 3187 3182 3332 3455 3164 3203 3141 2881 2852 2545 2017 1935 2315 2633 2849 2803 2574 2184 2537 2199 2373 1619 1269 1116 1188 1312 1597 1465 1439 1554 1645 1495 1399 1253 973 585
2804 2782 1406 358 163 731 1453 1474 1945 2711 3164 3034 3126 3269 3129 3191 2696 2186 1949 2378 2787 2927 3123 3100 2613 2591 2457 2420 2303 2038 1823 1751 1333 1369 1456 1517 1673 1646 1580 1398 1217 1070 945
926 1037 1202 1288 1078 668 242 243 449 613 804 1076 2081 2953 3168 3280 2676 2204 2017 2501 2876 3003 3278 3204 2813 2655 2248 1694 1977 1896 1812 1671 1333 1165 1059 1122 1072 941 867 1256 1044 809 785
505 488 339 243 115 138 190 220 322 266 216 264 382 1482 2855 3184 3044 2368 1958 2811 3061 3108 3359 3148 2251 2292 1925 1339 1569 1771 1684 1582 1718 1632 1199 813 595 681 273 753 877 716 730
187 37 29 81 36 39 86 164 142 75 78 141 391 757 2368 3164 3250 2258 1602 2428 2999 3205 3044 2214 1817 1316 1000 1063 1156 1621 1538 1498 1366 1290 1496 1393 1204 1401 1200 368 581 674 639
410 420 67 9 14 79 1 1 32 56 67 61 161 717 823 1566 1842 1549 1644 1538 1930 1955 1580 1379 1026 837 474 320 227 1119 1039 1131 1233 1126 908 890 1009 1105 1159 1068 611 333 542
376 471 338 81 8 43 28 0 31 27 0 11 40 174 472 798 767 833 956 889 1189 1371 1423 1282 795 195 1 0 38 42 152 671 821 824 928 1177 1251 979 924 800 728 607 426
38 446 595 347 152 90 73 123 3 0 0 0 12 107 232 431 465 316 511 533 513 486 295 168 2 9 0 217 9 77 161 249 377 486 430 381 261 273 243 244 326 290 288
0 0 227 606 499 265 116 137 26 0 0 0 0 31 232 272 438 404 507 606 711 223 0 0 0 9 20 22 131 85 113 200 263 335 169 170 160 53 61 47 57 112 216
0 0 1 66 598 639 334 227 0 0 0 0 0 0 13 204 346 235 191 265 176 121 156 161 22 0 19 11 4 56 143 155 231 226 181 96 34 35 2 1 6 54 52
0 0 3 17 81 261 541 397 129 61 0 0 0 0 0 0 1 51 149 197 114 129 382 249 170 123 87 101 117 63 37 78 86 51 39 19 0 0 2 5 1 3 14
0 0 0 2 106 158 255 430 281 128 73 94 0 0 0 0 0 2 0 8 89 57 419 456 469 267 191 148 64 60 66 11 0 0 0 0 0 0 0 0 0 0 3
0 1 5 4 77 205 347 493 340 187 196 108 17 0 0 0 0 0 0 232 253 358 440 473 330 184 138 14 5 22 0 0 0 0 0 0 0 0 0 0 0 0 0
1 0 0 8 63 296 419 611 429 304 233 90 0 0 0 0 0 0 0 285 514 629 630 279 117 8 0 0 0 0 0 0 0 0 0 0 0 0 0 0 0 0 0
2 110 167 205 283 662 724 647 572 449 286 188 171 0 0 0 4 38 236 612 665 253 49 4 5 0 0 0 0 0 0 0 0 0 0 0 0 0 0 0 0 0 0
4 36 132 306 593 880 747 683 590 468 255 167 309 0 0 0 3 24 5 1 4 2 5 0 0 0 0 0 0 0 0 0 0 0 0 0 0 0 0 0 0 0 0
15 34 96 208 347 472 527 533 474 404 322 194 122 0 0 1 0 1 1 2 0 0 0 0 0 0 0 0 0 0 0 0 0 0 0 0 0 0 0 0 0 0 0
19 77 98 114 140 253 369 330 292 250 336 209 25 0 1 1 1 0 0 0 0 0 0 0 0 0 0 0 0 0 0 0 0 0 0 0 0 0 0 0 0 0 0
8 17 50 68 41 28 97 171 306 352 325 60 10 1 2 3 2 0 0 0 0 0 0 0 0 0 0 0 0 0 0 0 0 0 0 0 0 0 0 0 0 0 0
5 5 4 31 62 45 16 245 305 344 131 1 2 3 5 8 0 0 0 0 0 0 0 0 0 0 0 0 0 0 0 0 0 0 0 0 0 0 0 0 0 0 0
CIN
-228 -213 -187 -186 -145 -138 -127 -100 -86 -98 -96 -76 -70 -69 -70 -62 -70 -74 -76 -63 -42 -49 -53 -42 -36 -18 -40 -56 -48 -33 -33 -14 -1 -3 -0 -3 -3 -17 -4 -25 -30 -24 -30
-234 -246 -227 -204 -153 -138 -143 -110 -95 -87 -93 -97 -67 -66 -68 -65 -61 -62 -57 -46 -44 -37 -9 -14 -44 -22 -17 -5 -9 -22 -31 -30 -4 -0 -0 -3 -0 -3 -26 -54 -24 -47 -32
-241 -130 -224 -297 -275 -173 -147 -99 -88 -78 -95 -79 -67 -72 -74 -65 -52 -54 -48 -41 -41 -39 -38 -36 -40 -26 -22 -16 -9 -10 -1 -0 -2 -0 -11 -47 -0 -0 -4 -30 -27 -22 -15
-243 -326 -343 -232 -205 -216 -199 -180 -126 -102 -94 -72 -67 -75 -78 -78 -63 -55 -47 -53 -50 -47 -49 -40 -26 -23 -11 -9 -1 -13 -34 -10 -3 -7 -23 -49 -10 -0 -0 -0 -1 -24 -2
-120 -196 -183 -156 -101 -103 -104 -114 -125 -151 -126 -99 -82 -75 -67 -88 -89 -100 -83 -63 -62 -54 -41 -28 -21 -21 -16 -9 -0 -6 -25 -11 -13 -39 -72 -67 -12 -0 -0 -0 -17 -16 -10
-169 -208 -165 -55 -51 -1 -17 -56 -70 -83 -87 -99 -109 -104 -82 -91 -106 -157 -109 -69 -56 -43 -15 -10 -7 -20 -30 -27 -26 -16 -5 -0 -0 -32 -63 -79 -56 -2 -0 -0 -0 -0 -6
-94 -143 -76 -289 -40 -19 -1 -46 -50 -42 -49 -91 -76 -70 -89 -85 -107 -141 -132 -62 -27 -1 -5 -8 -8 -3 -21 -9 -34 -45 -34 -16 -6 -0 -0 -3 -0 -0 -0 -0 -0 -0 -3
-90 -38 -123 -281 -347 -217 -111 -167 -134 -99 -64 -104 -86 -73 -98 -87 -113 -136 -139 -75 -28 -17 -9 -10 -6 -7 -8 -8 -4 -3 -1 -1 -16 -4 -0 -0 -0 -0 -0 -0 -0 -0 -0
-167 -182 -169 -140 -129 -207 -334 -347 -293 -260 -248 -232 -155 -81 -67 -91 -115 -134 -138 -70 -32 -35 -13 -11 -13 -10 -9 -37 -12 -3 -4 -3 -10 -26 -21 -12 -16 -19 -11 -0 -0 -1 -0
-184 -194 -274 -326 -382 -384 -391 -379 -371 -391 -375 -337 -317 -177 -66 -57 -86 -149 -158 -46 -7 -6 -0 -3 -26 -16 -19 -70 -24 -8 -3 -1 -0 -0 -17 -56 -72 -50 -112 -21 -4 -1 -0
-245 -264 -311 -308 -360 -410 -403 -391 -397 -434 -424 -382 -328 -251 -76 -27 -27 -138 -204 -72 -19 -1 -0 -34 -67 -139 -146 -62 -41 -13 -10 -6 -4 -6 -3 -2 -2 -0 -2 -81 -36 -14 -0
-244 -228 -266 -289 -303 -293 -120 -155 -438 -392 -430 -446 -369 -240 -300 -164 -132 -193 -196 -162 -103 -134 -199 -194 -238 -297 -311 -275 -208 -26 -31 -29 -8 -12 -20 -18 -6 -0 -0 -0 -23 -43 -16
-221 -177 -175 -248 -296 -295 -309 -0 -379 -417 -49 -444 -405 -368 -339 -264 -312 -319 -273 -253 -198 -189 -182 -202 -274 -382 -49 -0 -283 -198 -152 -42 -21 -22 -17 -0 -0 -0 -0 -0 -0 -0 -5
-257 -178 -133 -158 -184 -253 -275 -257 -259 -0 -0 -0 -332 -316 -357 -283 -307 -450 -354 -287 -249 -233 -341 -434 -381 -501 -0 -211 -192 -171 -89 -59 -60 -38 -34 -23 -53 -22 -18 -17 -4 -7 -2
-0 -0 -215 -140 -138 -172 -207 -171 -184 -0 -0 -0 -0 -326 -264 -284 -203 -197 -171 -158 -120 -277 -0 -0 -0 -462 -426 -196 -110 -30 -57 -57 -64 -42 -81 -76 -27 -46 -62 -96 -43 -13 -0
-0 -0 -61 -226 -128 -103 -119 -141 -0 -0 -0 -0 -0 -0 -113 -319 -204 -240 -270 -247 -319 -311 -271 -329 -302 -0 -379 -264 -163 -32 -63 -61 -31 -19 -132 -55 -31 -54 -25 -17 -33 -31 -41
-0 -0 -516 -483 -224 -144 -133 -101 -141 -160 -0 -0 -0 -0 -0 -0 -15 -442 -300 -216 -271 -268 -168 -257 -267 -247 -209 -127 -67 -78 -73 -24 -74 -162 -80 -73 -1 -0 -17 -3 -1 -0 -0
-0 -0 -0 -387 -373 -181 -142 -103 -89 -117 -94 -96 -0 -0 -0 -0 -0 -0 -0 -124 -270 -279 -109 -91 -50 -108 -104 -67 -102 -100 -53 -136 -0 -0 -0 -0 -0 -0 -0 -0 -0 -0 -0
-0 -155 -322 -369 -349 -215 -124 -118 -107 -110 -109 -123 -87 -0 -0 -0 -0 -0 -0 -199 -188 -123 -80 -67 -101 -153 -143 -172 -69 -17 -0 -0 -0 -0 -0 -0 -0 -0 -0 -0 -0 -0 -0
-0 -0 -0 -112 -47 -74 -78 -81 -112 -102 -108 -141 -0 -0 -0 -0 -0 -0 -0 -160 -77 -45 -35 -143 -237 -65 -0 -0 -0 -0 -0 -0 -0 -0 -0 -0 -0 -0 -0 -0 -0 -0 -0
-6 -52 -52 -59 -30 -19 -33 -60 -79 -85 -80 -100 -117 -3 -0 -0 -337 -288 -167 -55 -25 -123 -266 -0 -0 -0 -0 -0 -0 -0 -0 -0 -0 -0 -0 -0 -0 -0 -0 -0 -0 -0 -0
-0 -39 -35 -48 -25 -0 -8 -31 -60 -85 -105 -117 -106 -0 -0 -0 -0 -153 -204 -0 -0 -0 -0 -0 -0 -0 -0 -0 -0 -0 -0 -0 -0 -0 -0 -0 -0 -0 -0 -0 -0 -0 -0
-9 -7 -7 -16 -19 -25 -22 -33 -51 -81 -95 -130 -156 -0 -0 -0 -0 -0 -0 -0 -0 -0 -0 -0 -0 -0 -0 -0 -0 -0 -0 -0 -0 -0 -0 -0 -0 -0 -0 -0 -0 -0 -0
-2 -0 -0 -0 -12 -18 -18 -22 -46 -77 -60 -88 -118 -0 -0 -0 -0 -0 -0 -0 -0 -0 -0 -0 -0 -0 -0 -0 -0 -0 -0 -0 -0 -0 -0 -0 -0 -0 -0 -0 -0 -0 -0
-0 -0 -1 -0 -0 -34 -32 -24 -20 -22 -19 -102 -83 -0 -0 -0 -0 -0 -0 -0 -0 -0 -0 -0 -0 -0 -0 -0 -0 -0 -0 -0 -0 -0 -0 -0 -0 -0 -0 -0 -0 -0 -0
-0 -0 -0 -5 -0 -1 -15 -0 -3 -0 -14 -0 -0 -0 -0 -0 -0 -0 -0 -0 -0 -0 -0 -0 -0 -0 -0 -0 -0 -0 -0 -0 -0 -0 -0 -0 -0 -0 -0 -0 -0 -0 -0
Wind_Speed
7 5 5 8 9 5 18 28 25 24 31 33 33 30 25 20 17 15 15 29 6 21 26 15 16 6 3 7 6 5 5 6 12 18 17 19 20 13 15 11 8 5 3
6 11 20 24 23 12 9 25 24 24 21 34 34 31 24 18 16 15 21 29 27 16 20 15 13 5 5 8 6 5 5 6 7 13 16 17 17 16 15 14 12 14 9
3 20 34 34 33 27 15 16 18 18 21 25 32 30 22 14 5 6 19 33 32 25 26 17 12 8 11 10 9 8 8 9 8 7 8 11 15 13 16 15 18 18 17
13 16 23 27 22 18 11 10 15 14 16 26 28 26 27 24 21 23 25 30 30 29 25 16 15 9 10 7 6 7 6 8 9 9 9 9 8 10 9 9 13 19 22
8 14 16 18 18 16 13 8 11 6 3 2 29 27 20 17 22 20 25 29 30 29 23 18 18 9 12 6 4 5 5 6 8 8 8 9 10 12 12 9 9 17 12
8 3 5 5 25 27 17 5 4 4 6 13 17 20 17 2 18 19 18 25 27 26 28 25 22 6 9 5 4 4 5 5 4 4 5 7 9 12 13 12 9 7 21
14 10 3 11 18 25 17 6 8 9 16 17 19 21 21 18 23 5 11 4 17 21 23 29 22 11 3 5 1 2 4 2 1 2 5 7 6 7 12 11 11 14 16
13 10 9 10 8 8 7 11 14 18 19 20 24 27 26 31 30 20 8 7 15 16 14 16 18 14 9 9 12 11 9 8 2 1 3 2 1 5 5 6 7 14 10
15 13 9 8 7 7 17 19 21 18 25 27 28 30 30 31 26 24 16 15 14 14 14 14 14 14 14 11 15 15 13 13 9 4 4 10 9 10 11 11 8 13 16
22 22 19 18 17 19 22 23 23 26 28 30 30 32 33 33 28 24 21 20 17 17 16 19 19 21 20 14 16 17 17 17 13 13 13 13 12 13 13 12 18 17 20
23 24 23 21 22 23 24 25 26 28 31 34 35 34 34 33 31 27 23 21 19 18 18 17 18 22 28 23 20 23 22 22 18 17 16 18 19 19 18 17 17 18 22
30 28 28 28 27 27 28 28 29 31 32 33 36 37 34 33 30 28 23 19 17 16 15 13 13 15 27 32 34 30 29 25 24 22 19 19 19 21 21 20 19 20 21
32 32 32 31 31 29 29 28 31 32 33 34 37 38 37 33 29 22 18 16 16 17 15 13 16 18 21 24 28 32 30 25 23 23 22 22 23 25 23 22 21 22 22
35 35 35 35 32 31 32 31 31 32 34 35 35 36 35 30 25 20 21 18 17 20 20 19 24 22 16 16 12 15 22 21 20 21 22 23 24 24 22 22 23 23 21
38 36 35 36 36 36 33 33 34 33 32 34 34 33 34 29 23 22 20 19 20 22 19 22 22 20 15 13 9 16 17 17 19 17 18 21 21 20 20 21 21 18 20
45 41 40 39 38 38 38 37 34 35 33 33 33 31 32 31 30 24 27 29 30 29 27 25 22 19 15 4 3 5 11 14 15 16 19 16 17 16 16 17 18 19 20
46 48 47 44 44 43 40 40 42 34 34 34 35 34 34 36 31 29 29 28 28 25 26 23 19 14 10 4 0 2 3 5 7 10 11 15 16 15 14 15 16 18 18
42 45 46 46 47 46 41 36 35 37 38 36 33 33 34 35 31 21 20 20 20 17 19 17 15 12 12 10 6 5 6 5 7 10 13 15 14 14 15 16 17 18 19
37 38 36 38 42 42 41 36 33 32 35 37 34 34 32 31 27 19 13 16 15 16 16 14 14 13 12 10 8 7 6 7 9 11 13 13 14 14 15 16 17 19 20
37 36 35 35 37 41 37 35 32 31 33 35 35 34 30 27 24 18 14 14 12 12 11 10 10 9 8 7 7 6 7 9 11 12 13 14 15 16 17 18 19 20 22
35 33 28 24 24 27 32 33 32 32 35 34 35 32 28 28 22 16 15 12 9 10 9 8 7 6 5 4 5 7 7 10 11 12 14 15 16 17 18 19 20 22 23
36 34 30 22 19 22 26 32 34 34 35 34 33 30 28 25 21 17 14 13 10 9 6 4 3 2 3 4 5 6 8 10 12 13 14 16 17 18 19 20 22 22 23
36 32 29 28 23 23 32 37 36 36 36 33 29 29 26 23 17 14 12 9 7 5 3 1 1 2 4 6 8 8 9 11 12 14 15 16 18 19 19 20 21 21 22
33 29 27 29 26 24 37 41 41 39 35 28 28 25 20 16 13 10 7 5 5 4 2 1 2 3 5 7 8 9 10 12 13 14 15 16 17 17 19 20 21 22 24
23 24 26 24 32 29 39 44 42 38 31 27 24 17 13 12 10 8 7 7 6 5 3 3 4 5 5 7 8 10 11 13 14 15 15 16 17 18 20 21 22 23 25
16 15 24 23 29 36 45 43 40 32 22 18 15 14 12 12 10 10 9 8 6 4 3 4 5 5 5 8 10 11 12 14 14 16 16 17 18 19 20 21 22 22 23
Wind_Direction
197 236 244 284 289 274 200 217 212 212 247 260 250 267 284 296 302 307 312 240 192 222 245 211 217 175 69 22 24 49 47 42 357 349 2 358 355 348 328 339 352 72 322
219 282 290 272 277 290 196 209 209 212 205 239 247 269 289 300 305 306 299 279 287 207 223 206 208 145 159 168 135 111 85 89 51 6 359 357 4 15 348 328 340 324 337
113 198 230 242 228 205 189 191 198 200 205 214 229 223 208 200 239 266 300 250 244 229 238 216 204 175 188 180 157 135 128 124 126 117 81 40 9 14 16 354 309 305 284
134 160 190 205 194 189 185 187 195 193 195 214 219 215 217 213 208 213 215 229 231 234 228 207 205 179 180 155 135 131 103 119 137 145 156 150 126 49 66 95 12 314 294
151 181 180 179 183 181 176 174 178 170 176 202 228 221 203 198 208 205 214 224 227 230 220 205 209 181 187 151 96 102 87 125 138 138 129 133 153 166 165 89 139 240 196
23 45 150 342 256 227 184 123 123 139 333 319 305 297 304 220 205 203 202 218 220 219 228 226 221 170 180 165 152 37 17 15 30 60 120 134 158 171 181 177 146 129 324
6 25 69 311 271 259 179 1 346 335 315 307 304 300 301 233 216 201 194 215 302 296 297 270 297 333 11 358 46 47 2 24 76 59 163 165 145 156 184 175 181 198 211
3 14 18 359 36 183 4 334 332 318 312 311 303 293 294 282 282 297 303 302 307 307 312 311 310 319 334 334 331 336 338 338 333 319 339 185 74 11 18 17 357 343 359
336 338 350 359 6 339 315 317 312 327 301 302 300 294 289 287 293 293 296 297 301 306 310 312 313 314 315 318 317 319 325 326 333 325 319 328 331 333 337 341 349 338 333
307 308 312 315 319 316 307 313 314 309 301 304 305 295 290 288 293 296 293 289 293 298 303 305 306 307 310 311 310 312 312 315 319 319 321 319 318 317 318 320 319 320 320
302 300 303 310 311 308 308 312 313 310 304 298 299 299 296 291 292 293 290 285 282 289 298 308 314 312 306 304 300 299 300 305 309 311 313 312 312 313 316 316 314 313 312
296 295 296 299 302 302 303 309 309 306 308 306 299 294 298 296 294 292 289 279 271 271 281 292 300 309 314 305 294 291 292 295 297 302 308 309 310 311 313 315 313 312 310
294 290 292 295 297 300 302 303 303 306 308 308 301 297 296 297 296 292 287 282 268 268 272 269 267 293 314 316 287 282 282 287 292 299 303 306 309 309 311 315 318 314 314
293 289 288 289 291 292 294 298 301 303 304 306 305 301 298 296 294 291 289 282 280 283 285 295 302 307 318 322 326 297 281 282 290 296 300 305 310 310 315 315 315 313 316
292 290 287 286 285 287 288 291 292 296 301 303 304 302 298 298 293 285 281 280 281 288 294 301 310 312 310 315 310 299 296 296 294 303 310 311 315 317 317 317 317 320 317
289 288 285 283 283 282 283 285 288 290 293 296 299 299 299 297 293 290 279 280 283 286 290 296 299 297 300 262 293 261 300 304 289 294 306 317 321 333 335 331 325 321 320
288 285 283 281 278 277 277 278 280 289 290 292 292 293 292 291 292 289 283 282 281 287 286 290 294 301 303 309 249 319 350 12 349 332 327 320 330 338 341 339 333 329 328
295 291 286 282 275 272 271 273 277 279 284 289 290 291 290 289 291 289 285 286 282 282 286 285 288 296 298 305 323 334 349 10 351 333 332 335 344 346 343 339 338 334 331
302 298 296 287 274 267 267 266 269 276 282 284 286 287 290 290 289 286 276 282 276 277 277 278 285 288 297 301 315 330 343 344 340 336 335 341 344 344 344 341 339 336 334
301 302 300 291 278 262 261 259 263 270 278 280 279 282 286 288 286 284 278 276 272 269 269 275 285 291 296 306 316 333 340 332 332 334 336 339 339 338 340 339 338 336 334
302 302 303 297 281 267 258 256 259 266 271 275 273 279 281 279 278 275 272 270 262 259 261 270 281 292 307 317 331 334 340 327 334 336 334 331 334 337 337 337 338 338 337
299 297 296 290 281 271 261 257 258 264 267 270 271 276 276 274 271 269 268 267 264 261 263 253 274 307 333 336 348 351 334 329 332 334 335 335 336 338 339 338 337 336 336
296 291 286 281 273 268 263 256 257 260 260 265 267 271 270 266 263 262 259 252 248 246 247 199 134 8 355 347 345 327 328 333 336 338 339 340 340 341 343 340 340 341 340
291 281 273 269 264 261 255 248 247 250 255 261 260 264 260 255 252 250 226 190 168 162 142 102 19 32 14 359 339 335 345 346 346 347 349 348 348 349 345 345 345 342 341
275 261 239 239 255 252 247 236 238 245 251 253 253 252 246 236 228 215 186 164 153 133 106 74 40 27 349 345 349 351 354 353 356 357 357 356 353 352 348 346 345 344 342
259 244 218 209 242 239 230 229 233 243 247 244 238 235 222 211 199 180 168 151 142 148 90 56 40 27 358 6 10 10 6 3 360 356 357 355 354 352 350 348 347 347 347